This is the latest recevied weather packets stored in our database for station/object KE0PRS. If no packets are shown the sender has not sent any weather packets the latest 10 day(s).
| Time | Temp. | Humidity | Pressure | Rain* | Wind** | Luminosity | Snow |
|---|---|---|---|---|---|---|---|
| 1777577615 | 12.78° C | 80% | 1020 hPa | 0 mm | - | 327 W/m² | - |
| 1777577313 | 12.78° C | 80% | 1020.1 hPa | 0 mm | - | 298 W/m² | - |
| 1777577008 | 12.78° C | 80% | 1020.2 hPa | 0 mm | - | 376 W/m² | - |
| 1777576706 | 12.78° C | 82% | 1020.2 hPa | 0 mm | - | 391 W/m² | - |
| 1777576404 | 12.78° C | 82% | 1020.2 hPa | 0 mm | - | 428 W/m² | - |
| 1777576101 | 12.78° C | 82% | 1020.2 hPa | 0 mm | - | 379 W/m² | - |
| 1777575797 | 12.78° C | 81% | 1020.3 hPa | 0 mm | - | 410 W/m² | - |
| 1777575494 | 12.78° C | 83% | 1020.6 hPa | 0 mm | - | 386 W/m² | - |
| 1777575189 | 12.78° C | 84% | 1020.4 hPa | 0 mm | - | 366 W/m² | - |
| 1777574885 | 12.22° C | 84% | 1020.4 hPa | 0 mm | - | 333 W/m² | - |
| 1777574583 | 12.22° C | 84% | 1020.4 hPa | 0 mm | - | 322 W/m² | - |
| 1777574279 | 12.22° C | 85% | 1020.6 hPa | 0 mm | - | 286 W/m² | - |
| 1777573974 | 12.22° C | 85% | 1020.6 hPa | 0 mm | - | 243 W/m² | - |
| 1777573669 | 12.22° C | 86% | 1020.7 hPa | 0 mm | - | 242 W/m² | - |
| 1777573366 | 12.22° C | 87% | 1020.8 hPa | 0 mm | - | 213 W/m² | - |
| 1777573062 | 11.67° C | 85% | 1020.6 hPa | 0 mm | - | 209 W/m² | - |
| 1777572759 | 11.67° C | 85% | 1021 hPa | 0 mm | - | 212 W/m² | - |
| 1777572459 | 11.67° C | 85% | 1020.7 hPa | 0 mm | - | 194 W/m² | - |
| 1777572155 | 11.67° C | 87% | 1021 hPa | 0 mm | - | 196 W/m² | - |
| 1777571851 | 11.67° C | 87% | 1020.9 hPa | 0 mm | - | 204 W/m² | - |
| 1777571546 | 11.67° C | 87% | 1020.8 hPa | 0 mm | - | 195 W/m² | - |
| 1777571243 | 11.67° C | 88% | 1020.9 hPa | 0 mm | - | 193 W/m² | - |
| 1777570940 | 11.67° C | 88% | 1021 hPa | 0 mm | - | 226 W/m² | - |
| 1777570635 | 11.67° C | 89% | 1021.1 hPa | 0 mm | - | 227 W/m² | - |
| 1777570332 | 11.67° C | 89% | 1021.4 hPa | 0 mm | - | 215 W/m² | - |
* Rain latest hour (hover to see other rain measurements)
** Current wind speed in m/s (hover to see current wind gust speed)